contact:dominique.lefevre@mio.osupytheas.fr, maurice.libes@osupytheas.fr, didier.mallarino@osupytheas.fr
Project:EMSO http://www.emso-fr.org/EMSO-France
Depth: 2436.0 m
Title:EMSO Ligure Ouest : Data MII capteur AQUADOPP
Date,Latitude,Longitude,X_East,Y_North,Z_Up,Amplitude_X,Amplitude_Y,Amplitude_Z,Batterie,SoundSpeed,Heading,Pitch,Roll,Pressure,TIS,Speed,Direction
, degrees North, degrees East, m.s-1, m.s-1,m.s-1, 1, 1, 1, Volt, m.s-1, degree, degree, degree, dbar, degree_C, m.s-1, degree
2019-12-27T00:04:03,42.805,6.029,0.073,-0.016,-0.028,101.0,107.0,99.0,13.4,1505.2,325.7,-0.7,1.8,2470.249,13.3,0.074,102.4
2019-12-27T00:07:03,42.805,6.029,0.065,-0.018,-0.039,101.0,107.0,98.0,13.3,1505.3,325.3,-0.7,1.9,2470.263,13.31,0.067,105.5
2019-12-27T00:10:03,42.805,6.029,0.059,-0.004,-0.003,100.0,108.0,99.0,13.4,1505.3,326.5,-0.7,1.8,2470.27,13.31,0.059,93.9
2019-12-27T00:13:03,42.805,6.029,0.07,-0.01,-0.001,101.0,105.0,99.0,13.4,1505.3,327.4,-0.7,1.8,2470.237,13.32,0.07,98.1
2019-12-27T00:16:03,42.805,6.029,0.059,0.008,-0.019,101.0,107.0,98.0,13.4,1505.3,323.7,-0.7,1.8,2470.23,13.32,0.059,82.3
2019-12-27T00:19:03,42.805,6.029,0.05,0.002,-0.027,101.0,106.0,99.0,13.4,1505.3,326.5,-0.7,1.8,2470.229,13.32,0.05,87.7
2019-12-27T00:22:03,42.805,6.029,0.025,0.014,0.008,101.0,105.0,98.0,13.4,1505.3,325.8,-0.7,1.9,2470.281,13.32,0.028,60.7
2019-12-27T00:25:03,42.805,6.029,0.067,0.008,0.035,102.0,103.0,99.0,13.4,1505.3,325.0,-0.6,1.8,2470.204,13.32,0.067,83.2
2019-12-27T00:28:03,42.805,6.029,0.078,-0.026,-0.02,100.0,104.0,100.0,13.3,1505.3,324.8,-0.7,1.9,2470.225,13.32,0.082,108.4
2019-12-27T00:31:03,42.805,6.029,0.054,-0.011,-0.035,103.0,106.0,99.0,13.4,1505.3,327.6,-0.7,1.8,2470.187,13.32,0.055,101.5
2019-12-27T00:34:03,42.805,6.029,0.064,-0.01,0.009,102.0,105.0,99.0,13.4,1505.3,326.6,-0.7,1.8,2470.215,13.32,0.064,98.9
2019-12-27T00:37:03,42.805,6.029,0.068,0.0,-0.015,100.0,106.0,100.0,13.3,1505.3,323.1,-0.7,1.8,2470.228,13.32,0.067,90.0
2019-12-27T00:40:03,42.805,6.029,0.049,-0.027,-0.03,102.0,105.0,99.0,13.4,1505.3,324.8,-0.7,1.8,2470.183,13.32,0.055,118.9
2019-12-27T00:43:03,42.805,6.029,0.067,-0.007,-0.016,103.0,104.0,100.0,13.4,1505.3,325.0,-0.7,1.8,2470.213,13.32,0.067,96.0
2019-12-27T00:46:03,42.805,6.029,0.049,0.0,-0.013,101.0,106.0,99.0,13.4,1505.3,325.5,-0.7,1.8,2470.212,13.32,0.049,90.0
2019-12-27T00:49:03,42.805,6.029,0.039,-0.004,-0.009,103.0,106.0,99.0,13.3,1505.3,327.2,-0.7,1.8,2470.226,13.32,0.039,95.9
2019-12-27T00:52:03,42.805,6.029,0.046,0.009,-0.03,103.0,105.0,99.0,13.4,1505.3,325.3,-0.8,1.8,2470.203,13.32,0.046,78.9
2019-12-27T00:55:03,42.805,6.029,0.047,0.005,-0.034,103.0,106.0,99.0,13.3,1505.3,325.2,-0.7,1.8,2470.203,13.32,0.047,83.9
2019-12-27T00:58:03,42.805,6.029,0.062,-0.024,-0.012,103.0,106.0,100.0,13.4,1505.3,327.0,-0.7,1.9,2470.235,13.32,0.066,111.2
2019-12-27T01:04:03,42.805,6.029,0.077,-0.009,-0.036,103.0,106.0,101.0,13.3,1505.2,326.5,-0.7,1.8,2470.232,13.3,0.077,96.7
2019-12-27T01:07:03,42.805,6.029,0.066,-0.016,-0.01,103.0,105.0,101.0,13.4,1505.3,324.7,-0.7,1.8,2470.245,13.31,0.067,103.6
2019-12-27T01:10:03,42.805,6.029,0.06,-0.028,-0.021,102.0,104.0,101.0,13.4,1505.3,326.6,-0.7,1.8,2470.232,13.31,0.066,115.0
2019-12-27T01:13:03,42.805,6.029,0.065,-0.004,-0.036,102.0,105.0,99.0,13.4,1505.3,327.9,-0.7,1.8,2470.288,13.32,0.065,93.5
2019-12-27T01:16:03,42.805,6.029,0.088,-0.004,-0.008,103.0,104.0,101.0,13.4,1505.3,324.1,-0.8,1.8,2470.268,13.32,0.088,92.6
2019-12-27T01:19:03,42.805,6.029,0.071,0.013,-0.014,103.0,105.0,100.0,13.4,1505.3,325.7,-0.7,1.8,2470.23,13.32,0.072,79.6
2019-12-27T01:22:03,42.805,6.029,0.077,0.006,-0.078,103.0,104.0,100.0,13.3,1505.3,324.5,-0.7,1.8,2470.193,13.32,0.077,85.5
2019-12-27T01:25:03,42.805,6.029,0.068,-0.007,-0.019,103.0,105.0,100.0,13.4,1505.3,324.6,-0.7,1.8,2470.209,13.32,0.068,95.9
2019-12-27T01:28:03,42.805,6.029,0.063,-0.011,-0.035,104.0,105.0,100.0,13.4,1505.3,324.2,-0.7,1.8,2470.196,13.32,0.063,99.9
2019-12-27T01:31:03,42.805,6.029,0.056,-0.004,-0.041,103.0,104.0,100.0,13.4,1505.3,324.3,-0.7,1.8,2470.227,13.32,0.056,94.1
2019-12-27T01:34:03,42.805,6.029,0.048,-0.003,-0.026,102.0,105.0,100.0,13.4,1505.3,327.7,-0.7,1.9,2470.225,13.32,0.048,93.6
2019-12-27T01:37:03,42.805,6.029,0.074,-0.024,-0.004,103.0,104.0,100.0,13.4,1505.3,327.8,-0.7,1.8,2470.231,13.32,0.077,108.0
2019-12-27T01:40:03,42.805,6.029,0.064,0.003,0.001,101.0,105.0,102.0,13.4,1505.3,328.1,-0.7,1.8,2470.208,13.32,0.064,87.3
2019-12-27T01:43:03,42.805,6.029,0.079,-0.011,-0.032,103.0,105.0,100.0,13.3,1505.3,325.7,-0.7,1.9,2470.172,13.32,0.079,97.9
2019-12-27T01:46:03,42.805,6.029,0.044,0.003,-0.016,103.0,104.0,100.0,13.4,1505.3,326.6,-0.7,1.8,2470.154,13.32,0.044,86.1
2019-12-27T01:49:03,42.805,6.029,0.032,-0.029,-0.043,102.0,103.0,101.0,13.4,1505.3,323.6,-0.7,1.8,2470.188,13.32,0.043,132.2
2019-12-27T01:52:03,42.805,6.029,0.057,-0.009,-0.04,102.0,104.0,101.0,13.4,1505.3,328.1,-0.7,1.8,2470.218,13.32,0.057,99.0
2019-12-27T01:55:03,42.805,6.029,0.059,-0.001,-0.03,104.0,105.0,101.0,13.4,1505.3,326.0,-0.7,1.8,2470.198,13.32,0.059,91.0
2019-12-27T01:58:03,42.805,6.029,0.055,-0.001,-0.044,102.0,104.0,101.0,13.4,1505.3,327.3,-0.7,1.8,2470.156,13.32,0.055,91.0
2019-12-27T02:04:03,42.805,6.029,0.074,-0.016,0.016,103.0,105.0,102.0,13.4,1505.2,324.1,-0.8,1.8,2470.253,13.3,0.075,102.2
2019-12-27T02:07:03,42.805,6.029,0.067,-0.024,-0.023,103.0,105.0,102.0,13.4,1505.3,326.5,-0.7,1.9,2470.176,13.31,0.071,109.7
2019-12-27T02:10:03,42.805,6.029,0.06,-0.005,-0.043,105.0,105.0,101.0,13.4,1505.3,323.5,-0.7,1.8,2470.178,13.31,0.06,94.8
2019-12-27T02:13:03,42.805,6.029,0.06,-0.013,-0.052,103.0,105.0,101.0,13.3,1505.3,326.9,-0.7,1.8,2470.191,13.32,0.061,102.2
2019-12-27T02:16:03,42.805,6.029,0.049,-0.018,-0.05,104.0,104.0,101.0,13.4,1505.3,324.3,-0.8,1.9,2470.199,13.32,0.052,110.2
2019-12-27T02:19:03,42.805,6.029,0.074,-0.019,-0.036,104.0,106.0,101.0,13.4,1505.3,323.3,-0.7,1.8,2470.167,13.32,0.076,104.4
2019-12-27T02:22:03,42.805,6.029,0.07,-0.009,-0.009,106.0,105.0,101.0,13.3,1505.3,325.1,-0.7,1.8,2470.163,13.32,0.07,97.3
2019-12-27T02:25:03,42.805,6.029,0.057,-0.023,0.0,104.0,106.0,102.0,13.4,1505.3,327.8,-0.7,1.8,2470.205,13.32,0.061,112.0
2019-12-27T02:28:03,42.805,6.029,0.076,-0.047,-0.045,107.0,107.0,102.0,13.4,1505.3,326.0,-0.8,1.9,2470.201,13.32,0.089,121.7
2019-12-27T02:31:03,42.805,6.029,0.059,-0.037,-0.063,106.0,109.0,103.0,13.3,1505.3,326.5,-0.7,1.8,2470.191,13.32,0.069,122.1
2019-12-27T02:34:03,42.805,6.029,0.071,-0.037,-0.036,106.0,107.0,103.0,13.3,1505.3,323.2,-0.7,1.8,2470.198,13.32,0.08,117.5
2019-12-27T02:37:03,42.805,6.029,0.06,-0.03,-0.032,109.0,108.0,102.0,13.4,1505.3,324.8,-0.8,1.8,2470.216,13.32,0.067,116.6
2019-12-27T02:40:03,42.805,6.029,0.065,-0.026,-0.032,107.0,108.0,104.0,13.4,1505.3,323.6,-0.7,1.8,2470.188,13.32,0.07,111.8
2019-12-27T02:43:03,42.805,6.029,0.043,-0.023,-0.012,108.0,109.0,104.0,13.3,1505.3,326.3,-0.7,1.9,2470.16,13.32,0.048,118.1
2019-12-27T02:46:03,42.805,6.029,0.04,-0.018,-0.005,108.0,109.0,104.0,13.4,1505.3,327.2,-0.7,1.8,2470.207,13.32,0.043,114.2
2019-12-27T02:49:03,42.805,6.029,0.059,-0.033,-0.019,109.0,109.0,105.0,13.3,1505.3,325.2,-0.7,1.9,2470.196,13.32,0.067,119.2
2019-12-27T02:52:03,42.805,6.029,0.056,-0.028,-0.012,110.0,108.0,105.0,13.3,1505.3,323.7,-0.7,1.8,2470.155,13.32,0.062,116.6
2019-12-27T02:55:03,42.805,6.029,0.044,-0.026,-0.059,107.0,108.0,104.0,13.3,1505.3,324.7,-0.7,1.8,2470.217,13.32,0.051,120.6
2019-12-27T02:58:03,42.805,6.029,0.023,-0.032,-0.027,109.0,109.0,104.0,13.4,1505.3,326.0,-0.7,1.8,2470.174,13.32,0.039,144.3
2019-12-27T03:04:03,42.805,6.029,0.049,-0.04,-0.024,109.0,108.0,104.0,13.4,1505.2,324.2,-0.8,1.8,2470.201,13.3,0.063,129.2
2019-12-27T03:07:03,42.805,6.029,0.061,-0.035,0.022,109.0,109.0,107.0,13.3,1505.3,325.9,-0.7,1.8,2470.262,13.31,0.07,119.8
2019-12-27T03:10:03,42.805,6.029,0.04,-0.044,-0.031,108.0,108.0,104.0,13.4,1505.3,326.2,-0.7,1.8,2470.237,13.31,0.059,137.7
2019-12-27T03:13:03,42.805,6.029,0.055,-0.057,-0.007,109.0,108.0,104.0,13.4,1505.3,326.0,-0.7,1.8,2470.196,13.32,0.079,136.0
2019-12-27T03:16:03,42.805,6.029,0.048,-0.044,-0.013,109.0,109.0,105.0,13.4,1505.3,326.9,-0.7,1.8,2470.214,13.32,0.065,132.5
2019-12-27T03:19:03,42.805,6.029,0.017,-0.045,-0.025,111.0,108.0,105.0,13.4,1505.3,326.6,-0.7,1.9,2470.213,13.32,0.048,159.3
2019-12-27T03:22:03,42.805,6.029,0.025,-0.036,-0.008,110.0,109.0,105.0,13.4,1505.3,326.1,-0.7,1.8,2470.253,13.32,0.043,145.2
2019-12-27T03:25:03,42.805,6.029,0.033,-0.041,-0.001,111.0,110.0,103.0,13.4,1505.3,326.2,-0.7,1.8,2470.208,13.32,0.052,141.2
2019-12-27T03:28:03,42.805,6.029,0.022,-0.059,-0.012,109.0,109.0,104.0,13.4,1505.3,325.1,-0.7,1.8,2470.239,13.32,0.062,159.6
2019-12-27T03:31:03,42.805,6.029,0.033,-0.033,-0.008,108.0,108.0,106.0,13.4,1505.3,325.0,-0.7,1.9,2470.206,13.32,0.046,135.0
2019-12-27T03:34:03,42.805,6.029,0.045,-0.019,0.017,108.0,109.0,105.0,13.4,1505.3,325.2,-0.7,1.8,2470.253,13.32,0.048,112.9
2019-12-27T03:37:03,42.805,6.029,0.025,-0.015,-0.011,109.0,110.0,104.0,13.4,1505.3,326.6,-0.7,1.8,2470.262,13.32,0.029,121.0
2019-12-27T03:40:03,42.805,6.029,0.017,-0.038,-0.008,110.0,110.0,105.0,13.3,1505.3,328.4,-0.8,1.8,2470.197,13.32,0.041,155.9
2019-12-27T03:43:03,42.805,6.029,0.046,-0.038,-0.006,110.0,109.0,104.0,13.4,1505.3,326.5,-0.7,1.8,2470.25,13.32,0.059,129.6
2019-12-27T03:46:03,42.805,6.029,0.042,-0.054,-0.021,108.0,110.0,106.0,13.4,1505.3,328.1,-0.7,1.8,2470.254,13.32,0.068,142.1
2019-12-27T03:49:03,42.805,6.029,0.022,-0.014,0.005,110.0,110.0,104.0,13.4,1505.3,326.6,-0.7,1.8,2470.24,13.32,0.026,122.5
2019-12-27T03:52:03,42.805,6.029,0.024,-0.027,-0.01,108.0,110.0,105.0,13.3,1505.3,325.7,-0.7,1.8,2470.244,13.32,0.036,138.4
2019-12-27T03:55:03,42.805,6.029,0.037,-0.028,-0.027,110.0,110.0,104.0,13.4,1505.3,327.2,-0.7,1.8,2470.232,13.32,0.046,127.1
2019-12-27T03:58:03,42.805,6.029,0.044,-0.05,0.011,109.0,110.0,105.0,13.4,1505.3,326.4,-0.7,1.8,2470.208,13.32,0.066,138.7
2019-12-27T04:04:03,42.805,6.029,0.028,-0.027,-0.03,109.0,109.0,106.0,13.4,1505.2,325.9,-0.8,1.8,2470.28,13.3,0.038,134.0
2019-12-27T04:07:03,42.805,6.029,0.05,-0.03,-0.004,111.0,109.0,105.0,13.3,1505.3,325.0,-0.7,1.9,2470.297,13.31,0.058,121.0
2019-12-27T04:10:03,42.805,6.029,0.062,-0.035,-0.022,110.0,109.0,104.0,13.4,1505.3,324.6,-0.7,1.8,2470.29,13.31,0.071,119.4
2019-12-27T04:13:03,42.805,6.029,0.03,-0.026,-0.02,108.0,109.0,105.0,13.4,1505.3,326.3,-0.7,1.9,2470.24,13.32,0.039,130.9
2019-12-27T04:16:03,42.805,6.029,0.029,-0.037,-0.023,108.0,110.0,105.0,13.3,1505.3,323.8,-0.7,1.8,2470.279,13.32,0.047,141.9
2019-12-27T04:19:03,42.805,6.029,0.029,-0.049,0.004,109.0,110.0,105.0,13.4,1505.3,324.6,-0.8,1.8,2470.247,13.32,0.056,149.4
2019-12-27T04:22:03,42.805,6.029,0.054,-0.025,-0.015,108.0,109.0,105.0,13.4,1505.3,327.6,-0.7,1.9,2470.256,13.32,0.059,114.8
2019-12-27T04:25:03,42.805,6.029,0.037,-0.05,-0.012,110.0,109.0,104.0,13.4,1505.3,324.5,-0.7,1.8,2470.289,13.32,0.062,143.5
2019-12-27T04:28:03,42.805,6.029,0.047,-0.006,-0.007,108.0,109.0,106.0,13.4,1505.3,325.7,-0.7,1.8,2470.295,13.32,0.047,97.3
2019-12-27T04:31:03,42.805,6.029,0.027,-0.05,-0.011,107.0,108.0,104.0,13.4,1505.3,327.6,-0.7,1.8,2470.312,13.32,0.056,151.6
2019-12-27T04:34:03,42.805,6.029,0.03,-0.028,-0.027,108.0,109.0,104.0,13.3,1505.3,326.6,-0.7,1.8,2470.253,13.32,0.041,133.0
2019-12-27T04:37:03,42.805,6.029,0.038,-0.028,0.011,107.0,109.0,105.0,13.3,1505.3,323.9,-0.7,1.8,2470.334,13.32,0.047,126.4
2019-12-27T04:40:03,42.805,6.029,0.028,-0.027,-0.007,109.0,109.0,105.0,13.4,1505.3,323.8,-0.7,1.8,2470.311,13.32,0.038,134.0
2019-12-27T04:43:03,42.805,6.029,0.031,-0.04,-0.001,110.0,110.0,104.0,13.3,1505.3,324.2,-0.7,1.8,2470.284,13.32,0.05,142.2
2019-12-27T04:46:03,42.805,6.029,0.038,-0.038,-0.019,108.0,110.0,104.0,13.4,1505.3,325.2,-0.7,1.8,2470.289,13.32,0.053,135.0
2019-12-27T04:49:03,42.805,6.029,0.008,-0.037,-0.023,109.0,111.0,105.0,13.3,1505.3,327.4,-0.7,1.8,2470.307,13.32,0.037,167.8
2019-12-27T04:52:03,42.805,6.029,0.029,-0.025,-0.027,109.0,110.0,105.0,13.3,1505.3,325.1,-0.7,1.8,2470.337,13.32,0.038,130.8
2019-12-27T04:55:03,42.805,6.029,0.024,-0.052,-0.02,108.0,109.0,105.0,13.4,1505.3,326.5,-0.7,1.9,2470.283,13.32,0.057,155.2
2019-12-27T04:58:03,42.805,6.029,0.018,-0.041,-0.021,110.0,111.0,104.0,13.3,1505.3,326.4,-0.7,1.8,2470.299,13.32,0.044,156.3
2019-12-27T05:04:03,42.805,6.029,0.029,-0.037,-0.02,108.0,108.0,103.0,13.4,1505.2,328.3,-0.8,1.8,2470.334,13.3,0.047,141.9
2019-12-27T05:07:03,42.805,6.029,0.033,-0.046,-0.014,109.0,108.0,105.0,13.4,1505.3,326.6,-0.7,1.8,2470.302,13.31,0.056,144.3
2019-12-27T05:10:03,42.805,6.029,0.061,-0.032,-0.01,107.0,109.0,104.0,13.3,1505.3,325.1,-0.7,1.8,2470.342,13.31,0.068,117.7
2019-12-27T05:13:03,42.805,6.029,0.007,-0.021,-0.043,108.0,109.0,103.0,13.4,1505.3,326.6,-0.7,1.8,2470.344,13.32,0.022,161.6
2019-12-27T05:16:03,42.805,6.029,0.015,-0.05,-0.001,108.0,109.0,104.0,13.3,1505.3,325.6,-0.7,1.8,2470.339,13.32,0.052,163.3
2019-12-27T05:19:03,42.805,6.029,0.02,-0.026,-0.024,107.0,109.0,103.0,13.4,1505.3,323.5,-0.7,1.8,2470.322,13.32,0.032,142.4
2019-12-27T05:25:03,42.805,6.029,0.027,-0.018,0.004,108.0,109.0,104.0,13.4,1505.2,328.2,-0.7,1.8,2470.382,13.3,0.032,123.7
2019-12-27T05:28:03,42.805,6.029,0.022,-0.027,0.004,109.0,110.0,105.0,13.4,1505.3,326.7,-0.7,1.8,2470.363,13.31,0.034,140.8
2019-12-27T05:31:03,42.805,6.029,0.027,-0.025,-0.037,108.0,109.0,104.0,13.4,1505.3,325.9,-0.7,1.8,2470.38,13.31,0.036,132.8
2019-12-27T05:34:03,42.805,6.029,0.024,-0.038,0.007,108.0,108.0,105.0,13.4,1505.3,327.0,-0.7,1.8,2470.349,13.32,0.044,147.7
2019-12-27T05:37:03,42.805,6.029,0.039,-0.032,0.012,108.0,108.0,104.0,13.3,1505.3,324.6,-0.7,1.8,2470.362,13.32,0.05,129.4
2019-12-27T05:40:03,42.805,6.029,0.029,-0.033,-0.032,107.0,109.0,104.0,13.4,1505.3,325.8,-0.7,1.8,2470.351,13.32,0.043,138.7
2019-12-27T05:43:03,42.805,6.029,0.038,-0.038,-0.006,106.0,108.0,104.0,13.3,1505.3,325.6,-0.7,1.8,2470.353,13.32,0.053,135.0
2019-12-27T05:46:03,42.805,6.029,0.04,-0.016,0.013,110.0,109.0,103.0,13.3,1505.3,325.7,-0.7,1.8,2470.392,13.32,0.043,111.8
2019-12-27T05:49:03,42.805,6.029,0.042,-0.017,-0.013,108.0,108.0,103.0,13.4,1505.3,323.8,-0.7,1.8,2470.41,13.32,0.045,112.0
2019-12-27T05:52:03,42.805,6.029,0.041,-0.004,0.004,110.0,109.0,103.0,13.4,1505.3,325.4,-0.7,1.8,2470.392,13.32,0.041,95.6
2019-12-27T05:55:03,42.805,6.029,0.04,-0.048,-0.011,108.0,107.0,104.0,13.4,1505.3,325.9,-0.7,1.8,2470.364,13.32,0.062,140.2
2019-12-27T05:58:03,42.805,6.029,0.023,-0.021,-0.035,106.0,107.0,104.0,13.3,1505.3,324.6,-0.7,1.8,2470.354,13.32,0.031,132.4
2019-12-27T06:04:03,42.805,6.029,0.025,-0.039,-0.006,108.0,107.0,103.0,13.4,1505.2,324.1,-0.8,1.8,2470.442,13.3,0.046,147.3
2019-12-27T06:07:03,42.805,6.029,0.022,-0.048,-0.024,109.0,107.0,104.0,13.4,1505.3,325.9,-0.7,1.8,2470.375,13.31,0.052,155.4
2019-12-27T06:10:03,42.805,6.029,0.036,-0.017,-0.011,110.0,107.0,102.0,13.4,1505.3,326.6,-0.7,1.8,2470.435,13.32,0.039,115.3
2019-12-27T06:13:03,42.805,6.029,0.034,-0.029,-0.016,107.0,108.0,103.0,13.4,1505.3,326.0,-0.7,1.8,2470.416,13.32,0.044,130.5
2019-12-27T06:16:03,42.805,6.029,0.031,-0.014,-0.01,107.0,107.0,104.0,13.4,1505.3,327.7,-0.8,1.8,2470.399,13.32,0.034,114.3
2019-12-27T06:19:03,42.805,6.029,0.026,-0.031,-0.005,108.0,108.0,104.0,13.4,1505.3,323.3,-0.7,1.9,2470.38,13.32,0.04,140.0
2019-12-27T06:22:03,42.805,6.029,0.002,-0.037,-0.018,108.0,108.0,104.0,13.4,1505.3,325.6,-0.7,1.9,2470.428,13.32,0.037,176.9
2019-12-27T06:25:03,42.805,6.029,0.005,-0.028,-0.024,107.0,109.0,104.0,13.4,1505.3,326.3,-0.7,1.8,2470.404,13.32,0.028,169.9
2019-12-27T06:28:03,42.805,6.029,0.034,-0.035,-0.012,107.0,108.0,103.0,13.3,1505.3,327.0,-0.7,1.9,2470.39,13.32,0.048,135.8
2019-12-27T06:31:03,42.805,6.029,0.037,-0.036,0.006,109.0,107.0,104.0,13.3,1505.3,326.7,-0.7,1.8,2470.399,13.32,0.051,134.2
2019-12-27T06:34:03,42.805,6.029,0.018,-0.047,-0.012,108.0,109.0,104.0,13.4,1505.3,325.1,-0.7,1.8,2470.432,13.32,0.05,159.0
2019-12-27T06:37:03,42.805,6.029,0.009,-0.018,-0.003,107.0,108.0,104.0,13.4,1505.3,325.5,-0.7,1.9,2470.467,13.32,0.02,153.4
2019-12-27T06:40:03,42.805,6.029,0.012,-0.035,-0.014,108.0,108.0,104.0,13.4,1505.3,327.7,-0.7,1.9,2470.406,13.32,0.037,161.1
2019-12-27T06:43:03,42.805,6.029,0.003,-0.033,-0.009,107.0,107.0,104.0,13.3,1505.3,327.8,-0.7,1.8,2470.445,13.33,0.033,174.8
2019-12-27T06:46:03,42.805,6.029,0.015,-0.026,0.027,108.0,109.0,105.0,13.4,1505.3,327.8,-0.7,1.8,2470.451,13.33,0.03,150.0
2019-12-27T06:49:03,42.805,6.029,0.024,-0.021,-0.004,106.0,108.0,104.0,13.4,1505.3,325.8,-0.7,1.8,2470.461,13.33,0.031,131.2
2019-12-27T06:52:03,42.805,6.029,0.009,-0.002,0.011,108.0,108.0,103.0,13.4,1505.3,325.1,-0.7,1.8,2470.445,13.33,0.009,102.5
2019-12-27T06:55:03,42.805,6.029,0.013,-0.016,-0.001,107.0,107.0,104.0,13.4,1505.3,324.6,-0.7,1.9,2470.394,13.33,0.02,140.9
2019-12-27T06:58:03,42.805,6.029,0.018,-0.02,-0.026,107.0,108.0,104.0,13.4,1505.3,325.1,-0.7,1.8,2470.422,13.33,0.026,138.0
2019-12-27T07:04:03,42.805,6.029,0.021,-0.015,-0.014,108.0,108.0,104.0,13.3,1505.3,323.0,-0.7,1.8,2470.498,13.31,0.025,125.5
2019-12-27T07:07:03,42.805,6.029,0.015,-0.02,-0.013,108.0,107.0,104.0,13.4,1505.3,324.7,-0.7,1.8,2470.46,13.31,0.025,143.1
2019-12-27T07:10:03,42.805,6.029,0.008,-0.018,-0.005,112.0,108.0,103.0,13.4,1505.3,325.5,-0.7,1.9,2470.406,13.32,0.019,156.0
2019-12-27T07:13:03,42.805,6.029,0.006,-0.006,-0.028,108.0,107.0,102.0,13.3,1505.3,326.9,-0.7,1.8,2470.425,13.32,0.008,135.0
2019-12-27T07:16:03,42.805,6.029,-0.015,-0.007,-0.02,107.0,108.0,104.0,13.4,1505.3,327.2,-0.6,1.8,2470.459,13.32,0.016,245.0
2019-12-27T07:19:03,42.805,6.029,0.017,-0.008,-0.008,108.0,109.0,103.0,13.3,1505.3,326.4,-0.7,1.8,2470.45,13.32,0.018,115.2
2019-12-27T07:22:03,42.805,6.029,0.013,-0.018,0.0,109.0,107.0,104.0,13.4,1505.3,326.7,-0.7,1.8,2470.437,13.33,0.022,144.2
2019-12-27T07:25:03,42.805,6.029,0.003,-0.023,-0.017,108.0,108.0,104.0,13.3,1505.3,324.7,-0.7,1.8,2470.434,13.33,0.023,172.6
2019-12-27T07:28:03,42.805,6.029,0.044,-0.018,-0.001,109.0,108.0,104.0,13.4,1505.3,324.2,-0.7,1.8,2470.46,13.33,0.047,112.2
2019-12-27T07:31:03,42.805,6.029,0.0,-0.004,-0.002,107.0,109.0,105.0,13.4,1505.3,324.3,-0.7,1.8,2470.427,13.33,0.004,180.0
2019-12-27T07:34:03,42.805,6.029,0.003,-0.008,-0.016,108.0,109.0,103.0,13.3,1505.3,324.5,-0.7,1.8,2470.485,13.33,0.008,159.4
2019-12-27T07:37:03,42.805,6.029,0.004,-0.027,-0.014,107.0,109.0,104.0,13.3,1505.3,324.6,-0.7,1.9,2470.434,13.33,0.027,171.6
2019-12-27T07:40:03,42.805,6.029,0.005,-0.016,-0.003,107.0,109.0,104.0,13.3,1505.3,326.3,-0.7,1.8,2470.442,13.33,0.016,162.6
2019-12-27T07:43:03,42.805,6.029,0.015,-0.016,-0.015,106.0,110.0,104.0,13.4,1505.3,324.5,-0.7,1.8,2470.464,13.33,0.021,136.9
2019-12-27T07:46:03,42.805,6.029,0.024,-0.012,0.005,107.0,109.0,102.0,13.3,1505.3,324.8,-0.7,1.9,2470.495,13.33,0.026,116.6
2019-12-27T07:49:03,42.805,6.029,0.007,-0.031,0.002,108.0,108.0,103.0,13.4,1505.3,326.8,-0.7,1.8,2470.485,13.33,0.031,167.3
2019-12-27T07:52:03,42.805,6.029,0.03,-0.036,-0.006,108.0,108.0,103.0,13.3,1505.3,326.5,-0.7,1.8,2470.469,13.33,0.046,140.2
2019-12-27T07:55:03,42.805,6.029,0.006,-0.012,-0.009,109.0,109.0,104.0,13.4,1505.3,323.2,-0.8,1.8,2470.486,13.33,0.013,153.4
2019-12-27T07:58:03,42.805,6.029,-0.003,-0.021,0.0,108.0,109.0,104.0,13.4,1505.3,327.8,-0.7,1.8,2470.458,13.33,0.021,188.1
2019-12-27T08:04:03,42.805,6.029,0.032,-0.031,-0.02,106.0,108.0,104.0,13.4,1505.3,324.6,-0.8,1.8,2470.483,13.31,0.044,134.1
2019-12-27T08:07:03,42.805,6.029,0.039,-0.006,0.004,108.0,110.0,104.0,13.3,1505.3,326.6,-0.7,1.8,2470.486,13.32,0.039,98.7
2019-12-27T08:10:03,42.805,6.029,0.029,-0.013,0.008,108.0,108.0,104.0,13.4,1505.3,327.1,-0.7,1.8,2470.501,13.32,0.031,114.1
2019-12-27T08:13:03,42.805,6.029,0.025,-0.008,-0.017,109.0,108.0,103.0,13.4,1505.3,323.6,-0.7,1.9,2470.436,13.32,0.026,107.7
2019-12-27T08:16:03,42.805,6.029,0.009,-0.022,-0.011,107.0,110.0,106.0,13.4,1505.3,323.5,-0.7,1.8,2470.493,13.33,0.023,157.8
2019-12-27T08:19:03,42.805,6.029,0.022,-0.011,-0.02,110.0,109.0,104.0,13.4,1505.3,323.9,-0.7,1.8,2470.469,13.33,0.024,116.6
2019-12-27T08:22:03,42.805,6.029,0.015,-0.009,-0.029,105.0,110.0,106.0,13.4,1505.3,325.3,-0.7,1.8,2470.502,13.33,0.017,121.0
2019-12-27T08:25:03,42.805,6.029,0.025,0.005,-0.031,107.0,108.0,104.0,13.3,1505.3,327.3,-0.7,1.8,2470.458,13.33,0.025,78.7
2019-12-27T08:28:03,42.805,6.029,0.014,-0.004,-0.01,108.0,109.0,102.0,13.4,1505.3,325.2,-0.7,1.8,2470.482,13.33,0.014,105.9
2019-12-27T08:31:03,42.805,6.029,0.002,-0.003,-0.004,108.0,110.0,104.0,13.4,1505.3,326.6,-0.7,1.8,2470.445,13.33,0.003,146.3
2019-12-27T08:34:03,42.805,6.029,0.027,-0.013,-0.019,104.0,110.0,104.0,13.3,1505.3,325.0,-0.7,1.8,2470.52,13.33,0.029,115.7
2019-12-27T08:37:03,42.805,6.029,0.027,0.005,-0.01,106.0,109.0,104.0,13.4,1505.3,325.1,-0.8,1.8,2470.418,13.33,0.027,79.5
2019-12-27T08:40:03,42.805,6.029,0.036,-0.004,-0.003,105.0,110.0,103.0,13.4,1505.3,327.1,-0.7,1.8,2470.462,13.33,0.036,96.3
2019-12-27T08:43:03,42.805,6.029,0.009,-0.004,0.006,107.0,109.0,103.0,13.3,1505.3,325.3,-0.7,1.8,2470.453,13.33,0.009,114.0
2019-12-27T08:46:03,42.805,6.029,0.021,-0.013,-0.01,107.0,110.0,104.0,13.4,1505.3,324.2,-0.7,1.9,2470.475,13.33,0.024,121.8
2019-12-27T08:49:03,42.805,6.029,0.02,0.0,0.029,107.0,109.0,103.0,13.3,1505.3,323.5,-0.7,1.9,2470.479,13.33,0.02,90.0
2019-12-27T08:52:03,42.805,6.029,0.0,-0.02,0.015,108.0,109.0,103.0,13.4,1505.3,325.4,-0.7,1.8,2470.464,13.33,0.02,180.0
2019-12-27T08:55:03,42.805,6.029,0.021,-0.003,-0.049,107.0,108.0,103.0,13.3,1505.3,326.7,-0.7,1.8,2470.472,13.33,0.021,98.1
2019-12-27T08:58:03,42.805,6.029,0.012,-0.002,-0.001,108.0,111.0,103.0,13.4,1505.3,324.2,-0.7,1.8,2470.454,13.33,0.012,99.5
2019-12-27T09:04:03,42.805,6.029,0.025,0.006,-0.009,106.0,110.0,104.0,13.3,1505.3,326.3,-0.8,1.8,2470.496,13.31,0.025,76.5
2019-12-27T09:07:03,42.805,6.029,0.004,-0.005,-0.007,108.0,110.0,103.0,13.4,1505.3,325.0,-0.8,1.8,2470.475,13.32,0.006,141.3
2019-12-27T09:10:03,42.805,6.029,0.028,-0.014,0.006,106.0,111.0,105.0,13.4,1505.3,325.4,-0.7,1.8,2470.493,13.32,0.031,116.6
2019-12-27T09:13:03,42.805,6.029,0.017,-0.005,-0.024,107.0,110.0,102.0,13.4,1505.3,325.6,-0.7,1.8,2470.458,13.33,0.017,106.4
2019-12-27T09:16:03,42.805,6.029,0.02,-0.029,0.016,107.0,110.0,104.0,13.3,1505.3,328.2,-0.7,1.8,2470.478,13.33,0.035,145.4
2019-12-27T09:19:03,42.805,6.029,0.027,-0.01,0.021,109.0,110.0,103.0,13.4,1505.3,323.5,-0.7,1.8,2470.443,13.33,0.028,110.3
2019-12-27T09:22:03,42.805,6.029,0.016,0.01,0.014,109.0,110.0,105.0,13.3,1505.3,328.4,-0.7,1.8,2470.405,13.33,0.018,58.0
2019-12-27T09:25:03,42.805,6.029,-0.003,0.009,-0.004,106.0,112.0,104.0,13.3,1505.3,326.6,-0.7,1.8,2470.443,13.33,0.009,341.6
2019-12-27T09:28:03,42.805,6.029,0.015,0.01,-0.028,106.0,111.0,105.0,13.4,1505.3,326.6,-0.7,1.8,2470.453,13.33,0.018,56.3
2019-12-27T09:31:03,42.805,6.029,0.011,-0.01,-0.01,108.0,111.0,103.0,13.4,1505.3,326.9,-0.7,1.8,2470.413,13.33,0.014,132.3
2019-12-27T09:34:03,42.805,6.029,0.002,-0.015,-0.01,108.0,111.0,102.0,13.4,1505.3,326.5,-0.7,1.9,2470.421,13.33,0.015,172.4
2019-12-27T09:37:03,42.805,6.029,0.029,0.001,0.028,108.0,109.0,104.0,13.4,1505.3,325.6,-0.7,1.8,2470.449,13.33,0.029,88.0
2019-12-27T09:40:03,42.805,6.029,0.001,-0.006,-0.031,107.0,110.0,105.0,13.4,1505.3,325.0,-0.7,1.8,2470.452,13.33,0.006,170.5
2019-12-27T09:43:03,42.805,6.029,0.004,0.007,0.02,106.0,111.0,103.0,13.4,1505.3,327.2,-0.7,1.8,2470.455,13.33,0.008,29.7
2019-12-27T09:46:03,42.805,6.029,0.026,-0.004,0.002,107.0,109.0,103.0,13.4,1505.3,327.3,-0.7,1.8,2470.432,13.33,0.026,98.7
2019-12-27T09:49:03,42.805,6.029,0.034,0.028,-0.004,107.0,109.0,103.0,13.4,1505.3,325.5,-0.7,1.8,2470.421,13.33,0.044,50.5
2019-12-27T09:52:03,42.805,6.029,0.04,0.01,0.009,108.0,111.0,103.0,13.3,1505.3,324.7,-0.7,1.9,2470.476,13.33,0.041,76.0
2019-12-27T09:55:03,42.805,6.029,0.018,0.015,0.0,108.0,112.0,104.0,13.4,1505.3,324.4,-0.7,1.8,2470.423,13.33,0.023,50.2
2019-12-27T09:58:03,42.805,6.029,0.015,-0.01,0.011,108.0,110.0,104.0,13.4,1505.3,327.0,-0.7,1.8,2470.419,13.33,0.018,123.7
2019-12-27T10:04:03,42.805,6.029,0.036,-0.003,0.019,109.0,109.0,103.0,13.4,1505.3,325.0,-0.8,1.8,2470.458,13.31,0.036,94.8